Regional Weather Roundup
Issued by NWS

Home | Current Version | Previous Version | Text Only | Print | Product List | Glossary Off
Versions: 1 2 3 4 5 6 7 8 9 10 11 12 13 14 15 16 17 18 19 20 21 22 23 24 25 26 27 28 29 30 31 32 33 34 35 36 37 38 39 40 41 42 43 44 45 46 47 48 49 50

756
ASUS43 KOAX 210302
RWRNE

WEATHER ROUNDUP FOR NEBRASKA
NATIONAL WEATHER SERVICE OMAHA NE
900 PM CST TUE FEB 20 2018

NOTES: SATELLITE DATA IS BEING USED TO AUGMENT CLOUD COVER ABOVE
       12000 FEET.
       "FAIR" INDICATES FEW OR NO CLOUDS BELOW 12,000 FEET WITH NO
       SIGNIFICANT WEATHER AND/OR OBSTRUCTIONS TO VISIBILITY.


NEZ001>004-019>022-054>056-210400-
NEBRASKA PANHANDLE

CITY           SKY/WX    TMP DP  RH WIND       PRES   REMARKS
SCOTTSBLUFF    CLEAR     -5 -10  79 E5        30.19R WCI -16
ALLIANCE       CLEAR    -15 -19  82 SW7       30.19R WCI -31
CHADRON        CLEAR     -7 -15  68 S8        30.24R WCI -23
GORDON         FAIR     -13 -17  82 CALM      30.20S
KIMBALL        CLEAR     -4  -9  79 W13       30.13R WCI -23
SIDNEY         CLEAR    -11 -17  75 SW5       30.19R WCI -23
$$

NEZ057>060-069>072-079>082-210400-
SOUTHWEST NEBRASKA

CITY           SKY/WX    TMP DP  RH WIND       PRES   REMARKS
NORTH PLATTE   CLEAR      1  -8  66 W3        30.31R
IMPERIAL       CLEAR      4  -2  76 W5        30.29R WCI  -5
LEXINGTON      CLEAR     10   2  72 N6        30.33R WCI   0
MCCOOK         CLEAR      9   2  73 N5        30.34R WCI   1
OGALLALA       PTCLDY     1  -4  80 W3        30.29R
$$

NEZ005>010-023>029-035>040-094-210400-
NORTH CENTRAL NEBRASKA

CITY           SKY/WX    TMP DP  RH WIND       PRES   REMARKS
VALENTINE      CLEAR     -8 -13  78 W6        30.31R WCI -21
AINSWORTH      CLEAR     -3  -8  79 W6        30.30S WCI -15
BROKEN BOW     CLEAR      2  -5  72 CALM      30.31R
O`NEILL        CLEAR      1  -4  79 NW8       30.35R WCI -12
ORD            CLEAR      3  -2  79 NW3       30.34R
THEDFORD       CLEAR     -5 -10  81 CALM      30.29S
$$

NEZ041-046>049-061>064-073>077-083>087-210400-
SOUTH CENTRAL NEBRASKA

CITY           SKY/WX    TMP DP  RH WIND       PRES   REMARKS
GRAND ISLAND   CLEAR     11   2  67 N10       30.36R WCI  -3
AURORA         CLEAR     10   3  72 N13       30.36R WCI  -5
HASTINGS       CLEAR     11   3  70 N14       30.35R WCI  -5
HEBRON         CLOUDY    15   8  73 N7        30.37R WCI   5
HOLDREGE       CLEAR      9   4  80 N7        30.33R WCI  -2
KEARNEY        CLEAR      9   2  73 N9        30.35R WCI  -4
YORK           CLEAR     10   5  79 N10       30.36R WCI  -3
$$

NEZ011>018-030>034-042>045-210400-
NORTHEAST NEBRASKA

CITY           SKY/WX    TMP DP  RH WIND       PRES   REMARKS
NORFOLK        CLEAR      7   1  76 NW8       30.36R WCI  -6
ALBION         PTCLDY     7   1  76 N9        30.37R WCI  -7
BLAIR          CLOUDY    13   8  79 NW12      30.36R WCI  -1
COLUMBUS       CLEAR     10   4  76 NW12      30.38R WCI  -5
FREMONT        CLOUDY    12   6  76 NW13      30.39R WCI  -3
TEKAMAH        CLOUDY    12   5  73 NW13      30.40R WCI  -3
WAYNE          CLEAR      8   2  79 NW6       30.38R WCI  -2
$$

NEZ050>053-065>068-078-088>093-210400-
SOUTHEAST NEBRASKA

CITY           SKY/WX    TMP DP  RH WIND       PRES   REMARKS
LINCOLN        CLOUDY    15   7  70 N16       30.39R WCI  -1
OMAHA EPPLEY   CLOUDY    14   7  73 NW16G25   30.38R WCI  -2
BEATRICE       CLOUDY    17  11  76 N13       30.35R WCI   4
FALLS CITY     CLOUDY    18  11  74 N12G18    30.33R WCI   5
NEBRASKA CITY  PTCLDY    16  11  83 N14       30.35R WCI   1
PLATTSMOUTH    PTCLDY    15  10  80 NW12G17   30.36R WCI   2
$$

NEZ044-045-051>053-067-210400-
OMAHA AREA

CITY           SKY/WX    TMP DP  RH WIND       PRES   REMARKS
OMAHA EPPLEY   CLOUDY    14   7  73 NW16G25   30.38R WCI  -2
BLAIR          CLOUDY    13   8  79 NW12      30.36R WCI  -1
FREMONT        CLOUDY    12   6  76 NW13      30.39R WCI  -3
MILLARD        CLOUDY    15   8  71 NW8G18    30.39R WCI   5
OFFUTT AFB     MOCLDY    15   7  72 NW12      30.37R WCI   1
PLATTSMOUTH    PTCLDY    15  10  80 NW12G17   30.36R WCI   2
WAHOO          FAIR      13   6  73 MISG      30.38R
$$




USA.gov is the U.S. government's official web portal to all federal, state and local government web resources and services.